TimeEDT,TemperatureF,Dew PointF,Humidity,Sea Level PressureIn,VisibilityMPH,Wind Direction,Wind SpeedMPH,Gust SpeedMPH,PrecipitationIn,Events,Conditions,WindDirDegrees,DateUTC
12:15 AM,22.8,9.5,57,30.01,10.0,NW,13.8,19.6,N/A,,Overcast,310,2013-03-21 04:15:00
12:35 AM,22.8,10.4,59,30.01,10.0,NW,10.4,18.4,N/A,,Overcast,310,2013-03-21 04:35:00
12:55 AM,22.6,10.9,61,30.00,10.0,NW,10.4,17.3,N/A,,Overcast,320,2013-03-21 04:55:00
1:15 AM,22.1,10.8,62,30.01,10.0,NW,10.4,-,N/A,Snow,Light Snow,310,2013-03-21 05:15:00
1:35 AM,21.2,10.4,63,30.01,10.0,WNW,8.1,17.3,N/A,,Scattered Clouds,300,2013-03-21 05:35:00
1:55 AM,20.7,10.8,66,30.00,10.0,WNW,6.9,-,N/A,,Scattered Clouds,290,2013-03-21 05:55:00
2:15 AM,20.3,11.1,68,30.00,10.0,NW,12.7,18.4,N/A,,Mostly Cloudy,310,2013-03-21 06:15:00
2:35 AM,20.7,12.0,69,30.00,7.0,WNW,8.1,-,N/A,,Mostly Cloudy,300,2013-03-21 06:35:00
2:55 AM,19.9,12.0,71,29.99,10.0,WNW,6.9,-,N/A,,Scattered Clouds,300,2013-03-21 06:55:00
3:15 AM,20.1,11.1,68,29.99,10.0,WNW,6.9,-,N/A,,Mostly Cloudy,300,2013-03-21 07:15:00
3:35 AM,19.8,13.8,78,29.99,7.0,NW,9.2,-,N/A,Snow,Light Snow,310,2013-03-21 07:35:00
3:55 AM,19.9,13.3,75,29.99,7.0,NW,9.2,-,N/A,Snow,Light Snow,310,2013-03-21 07:55:00
4:15 AM,19.9,13.1,75,29.98,10.0,NW,8.1,-,N/A,,Overcast,310,2013-03-21 08:15:00
4:35 AM,19.9,11.1,69,29.98,10.0,NW,9.2,-,N/A,,Overcast,310,2013-03-21 08:35:00
4:55 AM,19.6,10.9,69,29.97,10.0,NW,9.2,-,N/A,,Overcast,310,2013-03-21 08:55:00
5:15 AM,18.9,10.4,70,29.97,10.0,NNW,9.2,-,N/A,,Scattered Clouds,330,2013-03-21 09:15:00
5:35 AM,18.5,10.4,71,29.98,10.0,NW,10.4,-,N/A,,Mostly Cloudy,320,2013-03-21 09:35:00
5:55 AM,17.8,9.5,70,29.96,10.0,NW,8.1,-,N/A,,Scattered Clouds,320,2013-03-21 09:55:00
6:15 AM,17.6,9.3,70,29.98,10.0,NW,9.2,-,N/A,,Clear,320,2013-03-21 10:15:00
6:35 AM,17.4,9.5,71,29.99,10.0,NW,4.6,-,N/A,,Scattered Clouds,320,2013-03-21 10:35:00
6:55 AM,17.1,9.3,72,29.99,10.0,NW,5.8,-,N/A,,Scattered Clouds,320,2013-03-21 10:55:00
7:15 AM,16.3,8.6,72,29.99,10.0,NW,4.6,-,N/A,,Clear,320,2013-03-21 11:15:00
7:35 AM,15.3,7.9,73,29.99,10.0,WNW,4.6,-,N/A,,Clear,300,2013-03-21 11:35:00
7:55 AM,15.6,8.4,73,30.00,10.0,WNW,5.8,-,N/A,,Clear,300,2013-03-21 11:55:00
8:15 AM,15.4,8.6,74,30.01,10.0,WNW,5.8,-,N/A,,Clear,290,2013-03-21 12:15:00
8:35 AM,16.3,9.3,74,30.01,10.0,WNW,5.8,-,N/A,,Clear,290,2013-03-21 12:35:00
8:55 AM,17.2,9.1,71,30.01,10.0,WNW,10.4,-,N/A,,Clear,300,2013-03-21 12:55:00
9:15 AM,18.3,8.6,66,30.01,10.0,NW,10.4,-,N/A,,Clear,310,2013-03-21 13:15:00
9:35 AM,19.4,8.8,63,30.02,10.0,NW,8.1,-,N/A,,Clear,310,2013-03-21 13:35:00
9:55 AM,19.9,8.6,61,30.02,10.0,WNW,10.4,-,N/A,,Clear,300,2013-03-21 13:55:00
10:15 AM,21.2,8.4,58,30.02,10.0,NW,9.2,-,N/A,,Clear,310,2013-03-21 14:15:00
10:35 AM,22.1,8.1,55,30.02,10.0,NW,6.9,-,N/A,,Clear,320,2013-03-21 14:35:00
10:55 AM,22.6,7.9,53,30.03,10.0,WNW,6.9,-,N/A,,Clear,290,2013-03-21 14:55:00
11:15 AM,24.3,8.4,51,30.03,10.0,WNW,5.8,-,N/A,,Clear,290,2013-03-21 15:15:00
11:35 AM,25.7,8.2,48,30.03,10.0,WNW,9.2,-,N/A,,Clear,290,2013-03-21 15:35:00
11:55 AM,25.7,7.9,47,30.03,10.0,WNW,6.9,-,N/A,,Clear,290,2013-03-21 15:55:00
12:15 PM,25.9,8.2,47,30.03,10.0,WNW,9.2,-,N/A,,Clear,290,2013-03-21 16:15:00
12:35 PM,27.5,9.7,47,30.04,10.0,WNW,3.5,-,N/A,,Clear,300,2013-03-21 16:35:00
12:55 PM,28.4,8.6,43,30.03,10.0,West,10.4,16.1,N/A,,Clear,270,2013-03-21 16:55:00
1:15 PM,28.4,8.2,43,30.03,10.0,WSW,6.9,18.4,N/A,,Scattered Clouds,250,2013-03-21 17:15:00
1:55 PM,30.2,10.0,43,30.03,10.0,WNW,9.2,-,N/A,,Scattered Clouds,300,2013-03-21 17:55:00
2:15 PM,30.9,9.5,41,30.02,10.0,WNW,8.1,-,N/A,,Scattered Clouds,300,2013-03-21 18:15:00
2:35 PM,31.1,9.0,40,30.02,10.0,West,9.2,-,N/A,,Scattered Clouds,280,2013-03-21 18:35:00
2:55 PM,31.6,8.6,38,30.02,10.0,West,5.8,16.1,N/A,,Clear,270,2013-03-21 18:55:00
3:15 PM,32.0,11.1,42,30.01,10.0,NNW,9.2,17.3,N/A,,Scattered Clouds,330,2013-03-21 19:15:00
3:35 PM,32.2,9.5,39,30.00,10.0,WNW,10.4,16.1,N/A,,Scattered Clouds,290,2013-03-21 19:35:00
3:55 PM,32.2,9.0,38,30.00,10.0,West,12.7,17.3,N/A,,Mostly Cloudy,280,2013-03-21 19:55:00
4:15 PM,32.7,9.9,39,29.99,10.0,West,9.2,16.1,N/A,,Mostly Cloudy,270,2013-03-21 20:15:00
4:35 PM,32.7,9.5,38,29.99,10.0,West,11.5,18.4,N/A,,Mostly Cloudy,270,2013-03-21 20:35:00
4:55 PM,33.3,11.1,40,29.99,10.0,West,11.5,19.6,N/A,,Scattered Clouds,280,2013-03-21 20:55:00
5:15 PM,32.9,9.3,37,29.99,10.0,WNW,9.2,16.1,N/A,,Scattered Clouds,300,2013-03-21 21:15:00
5:35 PM,32.9,10.8,40,29.99,10.0,WNW,10.4,-,N/A,,Scattered Clouds,290,2013-03-21 21:35:00
5:55 PM,33.8,10.0,37,29.98,10.0,WNW,8.1,17.3,N/A,,Scattered Clouds,290,2013-03-21 21:55:00
6:15 PM,33.4,9.5,37,29.98,10.0,NW,9.2,-,N/A,,Scattered Clouds,320,2013-03-21 22:15:00
6:35 PM,33.4,9.1,36,29.98,10.0,WNW,8.1,16.1,N/A,,Mostly Cloudy,290,2013-03-21 22:35:00
6:55 PM,32.5,9.7,39,29.99,10.0,NW,8.1,-,N/A,,Scattered Clouds,320,2013-03-21 22:55:00
7:15 PM,32.0,10.4,41,29.99,10.0,WNW,5.8,-,N/A,,Clear,300,2013-03-21 23:15:00
7:35 PM,31.1,10.4,42,29.99,10.0,WNW,6.9,-,N/A,,Clear,300,2013-03-21 23:35:00
7:55 PM,30.2,10.8,44,30.00,10.0,WNW,4.6,-,N/A,,Clear,290,2013-03-21 23:55:00
8:15 PM,29.1,12.6,50,30.00,10.0,West,4.6,-,N/A,,Clear,270,2013-03-22 00:15:00
8:35 PM,28.6,13.1,52,30.00,10.0,West,5.8,-,N/A,,Clear,270,2013-03-22 00:35:00
8:55 PM,28.0,13.3,54,30.00,10.0,West,4.6,-,N/A,,Clear,260,2013-03-22 00:55:00
9:15 PM,28.0,12.9,53,30.00,10.0,West,4.6,-,N/A,,Clear,260,2013-03-22 01:15:00
9:35 PM,26.6,14.9,61,30.01,10.0,WSW,4.6,-,N/A,,Clear,240,2013-03-22 01:35:00
9:55 PM,26.4,15.6,64,30.01,10.0,WSW,4.6,-,N/A,,Clear,240,2013-03-22 01:55:00
10:15 PM,26.1,16.2,66,30.02,10.0,WSW,3.5,-,N/A,,Clear,240,2013-03-22 02:15:00
10:55 PM,25.0,14.5,65,30.02,10.0,WSW,4.6,-,N/A,,Clear,250,2013-03-22 02:55:00
11:15 PM,26.2,13.8,59,30.02,10.0,WSW,3.5,-,N/A,,Clear,240,2013-03-22 03:15:00
11:35 PM,24.8,15.6,68,30.02,10.0,WSW,4.6,-,N/A,,Clear,240,2013-03-22 03:35:00
11:55 PM,24.6,15.3,68,30.03,10.0,WSW,4.6,-,N/A,,Clear,250,2013-03-22 03:55:00